Location: Unspecified
(48.8656°N, 0.0000°E)
Time: 21:50:33
(UTC+00:00)

Transit 2A Rocket - Pass Details

Date: 17 June 2019
Orbit: 588 x 915 km, 66.7° (Epoch: 17 July)

Event Time Altitude Azimuth Distance (km) Brightness Sun altitude
Rises 14:03:19 0° 272° (W) 3,541 8.8 54.9°
Reaches altitude 10° 14:06:38 10° 289° (WNW) 2,580 8.2 54.5°
Maximum altitude 14:10:53 20° 334° (NNW) 1,941 7.3 53.9°
Drops below altitude 10° 14:15:00 10° 20° (NNE) 2,477 7.5 53.3°
Sets 14:18:07 0° 37° (NE) 3,355 8.0 52.9°
